Back to catalog

QIANFAN-221

AliveCommunicationsPO
NORAD 69850·PAYLOAD·🇨🇳 China

Launched Jul 5, 2026 from Wenchang Space Launch Site

Loading…

Next Passes (next 24 hours)

TLE

FreshSource: Space-Track

Epoch: Sep 14, 2026, 21:13 UTC

1 69850U 26155C   26257.88464057 -.01876514  00000-0 -20283+1 0  9990
2 69850  89.0071  54.0773 0033544  28.7755 331.5252 13.77413832 10083

Track QIANFAN-221 in real time with AllMySat

Download on the App Store